Flag for United Kingdom Weather past 2 weeks in Luton, England, United Kingdom

Now
57 °F

Clear.


Feels Like: 56 °F
Forecast: 53 / 67 °F
Wind: 7 mph from Southeast

Location: Luton Airport

Current Time: Aug 3, 2015 at 4:08:26 AM

Latest Report: Aug 3, 2015 at 3:20 AM


Visibility: 10 mi

Pressure: 29.80 "Hg

Humidity: 88%

Dew point: 54 °F

Location of LutonLocation

Historic Weather in Luton — Graph

°F

Luton temperature yesterday

Maximum temperature yesterday: 75 °F (at 3:50 PM)
Minimum temperature yesterday: 48 °F (at 4:50 AM)
Average temperature yesterday: 63 °F

Past Weeks' High & Low Weather Summary

 TemperatureHumidityPressure
High77 °F (Jul 21, 3:20 PM)100% (Jul 24, 12:20 PM)30.15 "Hg (Jul 24, 12:20 PM)
Low46 °F (Jul 31, 5:50 AM)31% (Jul 19, 5:20 PM)29.39 "Hg (Jul 27, 2:50 AM)
Average60 °F74%29.87 "Hg
* Reported Jul 19 2:20 AM — Aug 3 2:50 AM, Luton, Weather by CustomWeather, © 2015

Note: Actual official high and low records may vary slightly from our data, if they occured in-between our weather recording intervals... More about our weather records

Advertising

Luton weather history for previous 24 hours

 ConditionsComfort  
Time TempWeatherWind HumidityBarometerVisibility
2:50 AM
Mon, Aug 3
57 °FClear.6 mph88%29.80 "Hg10 mi
2:20 AM57 °FClear.6 mph88%29.83 "Hg10 mi
1:50 AM57 °FClear.5 mph82%29.83 "Hg10 mi
1:20 AM57 °FClear.6 mph82%29.86 "Hg10 mi
12:50 AM59 °FClear.6 mph72%29.86 "Hg10 mi
12:20 AM61 °FClear.8 mph68%29.86 "Hg10 mi
11:50 PM
Sun, Aug 2
63 °FClear.13 mph64%29.86 "Hg10 mi
11:20 PM63 °FClear.12 mph64%29.89 "Hg10 mi
10:50 PM63 °FClear.9 mph68%29.92 "Hg10 mi
10:20 PM63 °FClear.7 mph59%29.92 "Hg10 mi
9:50 PM63 °FClear.5 mph56%29.92 "Hg10 mi
9:20 PM66 °FSunny.6 mph49%29.92 "Hg10 mi
8:50 PM66 °FSunny.6 mph49%29.92 "Hg10 mi
8:20 PM68 °FSunny.6 mph46%29.92 "Hg10 mi
7:50 PM72 °FSunny.6 mph41%29.92 "Hg10 mi
7:20 PM72 °FSunny.10 mph41%29.95 "Hg10 mi
6:50 PM73 °FSunny.13 mph38%29.95 "Hg10 mi
6:20 PM75 °FPassing clouds.12 mph36%29.95 "HgN/A
5:50 PM75 °FPassing clouds.12 mph36%29.95 "HgN/A
5:20 PM75 °FSunny.12 mph36%29.95 "Hg10 mi
4:50 PM73 °FPassing clouds.9 mph38%29.98 "HgN/A
4:20 PM75 °FPassing clouds.9 mph36%29.98 "HgN/A
3:50 PM75 °FPassing clouds.10 mph39%29.98 "HgN/A
3:20 PM73 °FPassing clouds.10 mph41%30.01 "HgN/A
2:50 PM73 °FPassing clouds.10 mph41%30.01 "HgN/A
2:20 PM72 °FPassing clouds.9 mph47%30.04 "HgN/A
1:50 PM72 °FScattered clouds.10 mph50%30.04 "HgN/A
1:20 PM73 °FScattered clouds.10 mph47%30.04 "HgN/A
12:50 PM70 °FPassing clouds.10 mph53%30.04 "HgN/A
12:20 PM70 °FPassing clouds.8 mph57%30.07 "HgN/A
11:50 AM68 °FPassing clouds.10 mph56%30.07 "HgN/A
11:20 AM66 °FPassing clouds.10 mph60%30.07 "HgN/A
10:50 AM66 °FPassing clouds.10 mph64%30.07 "HgN/A
10:20 AM64 °FPassing clouds.12 mph68%30.07 "HgN/A
9:50 AM64 °FMild.8 mph68%30.07 "HgN/A
9:20 AM61 °FPassing clouds.7 mph83%30.07 "HgN/A
8:50 AM59 °FPassing clouds.6 mph94%30.07 "HgN/A
8:20 AM57 °FPassing clouds.5 mph94%30.07 "Hg4 mi
7:50 AM54 °FSleet. Fog.6 mph100%30.07 "Hg2 mi
7:20 AM54 °FSleet. Fog.5 mph100%30.07 "Hg2 mi
6:50 AM54 °FFog.3 mph100%30.07 "Hg3 mi
6:20 AM50 °FFog.2 mph100%30.07 "Hg3 mi
5:50 AM50 °FFog.5 mph100%30.07 "Hg3 mi
5:20 AM50 °FClear.5 mph100%30.07 "Hg5 mi
4:50 AM48 °FFog.2 mph94%30.07 "Hg2 mi
4:20 AM50 °FClear.2 mph100%30.07 "Hg10 mi
Weather by CustomWeather, © 2015

See weather overviewHow to use our weather pages